Weather History for Russell, KS

Change the Weather History Date:

Tuesday, December 13, 2011

  Actual Average Record
Temperature  
Mean Temperature 40 °F -  
Max Temperature 42 °F 42 °F 72 °F (1988)
Min Temperature 37 °F 21 °F -9 °F (1961)
Degree Days  
Heating Degree Days 26    
Moisture  
Dew Point 39 °F    
Average Humidity 97    
Maximum Humidity 100    
Minimum Humidity 93    
Precipitation  
Precipitation 0.05 in - - ()
Sea Level Pressure  
Sea Level Pressure 30.10 in    
Wind  
Wind Speed 9 mph (SSE)    
Max Wind Speed 17 mph    
Max Gust Speed -    
Visibility 2 miles    
Events Fog , Rain    
Averages and records for this station are not official NWS values.
T = Trace of Precipitation, MM = Missing Value Source: NWS Daily Summary

Daily Weather History Graph

Daily Weather History Graph

Search for Another Location

Airport:

Trip Planner

Search our weather history database for the weather conditions in past years. The results will help you decide how hot, cold, wet, or windy it might be!

Date:

Astronomy

Dec. 13, 2011 Rise Set
Actual Time 7:45 AM CST 5:13 PM CST
Civil Twilight 7:15 AM CST 5:43 PM CST
Nautical Twilight 6:41 AM CST 6:17 PM CST
Astronomical Twilight 6:09 AM CST 6:49 PM CST
Moon 8:29 PM CST (12/13) 9:57 AM CST (12/13)
Length of Visible Light 10h 28m
Length of Day
9h 28m
Waning Gibbous, 90% of the Moon is Illuminated
Dec 13
Waning Gibbous
Dec 17
Last Quarter
Dec 24
New
Jan 1
First Quarter
Jan 9
Full

Hourly Weather History & Observations

Time (CST) Temp. Windchill Dew Point Humidity Pressure Visibility Wind Dir Wind Speed Gust Speed Precip Events Conditions
12:50 AM 39.2 °F 37.0 °F 37.4 °F 93% 30.18 in 4.0 mi SE 3.5 mph - N/A   Overcast
12:53 AM 39.0 °F 35.7 °F 37.9 °F 96% 30.21 in 4.0 mi SSE 4.6 mph - N/A   Overcast
1:53 AM 39.0 °F 32.8 °F 37.9 °F 96% 30.24 in 4.0 mi South 9.2 mph - N/A   Overcast
2:28 AM 39.2 °F 35.9 °F 37.4 °F 93% 30.18 in 2.5 mi SE 4.6 mph - N/A   Overcast
2:53 AM 39.0 °F 34.8 °F 37.9 °F 96% 30.22 in 2.5 mi South 5.8 mph - 0.00 in Rain Light Rain
3:50 AM 39.2 °F 37.0 °F 37.4 °F 93% 30.18 in 2.5 mi ESE 3.5 mph - 0.00 in   Overcast
3:53 AM 39.0 °F 34.8 °F 37.9 °F 96% 30.21 in 2.5 mi ESE 5.8 mph - 0.00 in   Overcast
4:12 AM 39.2 °F 33.6 °F 37.4 °F 93% 30.17 in 2.5 mi SE 8.1 mph - N/A   Overcast
4:30 AM 39.2 °F 34.2 °F 37.4 °F 93% 30.18 in 1.8 mi SSE 6.9 mph - N/A   Overcast
4:53 AM 39.0 °F 32.3 °F 37.9 °F 96% 30.20 in 1.0 mi SE 10.4 mph - N/A   Mist
5:48 AM 37.4 °F 30.3 °F 37.4 °F 100% 30.15 in 0.8 mi SE 10.4 mph - N/A   Overcast
5:53 AM 37.9 °F 32.1 °F 37.9 °F 100% 30.20 in 0.8 mi SSE 8.1 mph - N/A   Overcast
6:08 AM 37.4 °F 29.8 °F 37.4 °F 100% 30.16 in 1.0 mi SSE 11.5 mph - N/A   Overcast
6:53 AM 37.9 °F 31.5 °F 37.9 °F 100% 30.20 in 1.2 mi SSE 9.2 mph - N/A   Overcast
7:23 AM 37.4 °F 30.8 °F 37.4 °F 100% 30.16 in 2.0 mi SSE 9.2 mph - N/A   Overcast
7:53 AM 37.9 °F 30.9 °F 37.9 °F 100% 30.20 in 2.0 mi SSE 10.4 mph - N/A   Overcast
8:03 AM 37.4 °F 31.4 °F 37.4 °F 100% 30.16 in 1.5 mi SSE 8.1 mph - N/A   Overcast
8:21 AM 37.4 °F 29.3 °F 37.4 °F 100% 30.17 in 0.8 mi SSE 12.7 mph - N/A   Mist
8:53 AM 37.9 °F 30.9 °F 37.9 °F 100% 30.21 in 0.5 mi SSE 10.4 mph - 0.00 in Fog Fog
9:48 AM 39.2 °F 31.6 °F 37.4 °F 93% 30.17 in 1.0 mi SSE 12.7 mph - 0.00 in Rain Light Rain
9:53 AM 39.0 °F 31.8 °F 37.9 °F 96% 30.20 in 1.0 mi SSE 11.5 mph - 0.00 in Rain Light Rain
10:15 AM 39.2 °F 32.5 °F 39.2 °F 100% 30.16 in 1.8 mi SSE 10.4 mph - 0.01 in Rain Light Rain
10:40 AM 39.2 °F 33.0 °F 39.2 °F 100% 30.16 in 2.0 mi SSE 9.2 mph - 0.02 in Rain Light Rain
10:50 AM 39.2 °F 32.0 °F 39.2 °F 100% 30.16 in 1.5 mi SSE 11.5 mph - 0.02 in Rain Light Rain
10:53 AM 39.0 °F 31.8 °F 39.0 °F 100% 30.19 in 1.5 mi SSE 11.5 mph - 0.02 in Rain Light Rain
11:16 AM 39.2 °F 32.0 °F 39.2 °F 100% 30.15 in 2.0 mi SSE 11.5 mph - 0.00 in Rain Light Rain
11:53 AM 39.9 °F 31.1 °F 39.0 °F 97% 30.16 in 2.0 mi SSE 17.3 mph - 0.01 in Rain Light Rain
12:12 PM 39.2 °F 31.6 °F 39.2 °F 100% 30.11 in 1.5 mi SSE 12.7 mph - 0.00 in Rain Light Rain
12:29 PM 39.2 °F 31.6 °F 39.2 °F 100% 30.10 in 3.0 mi SSE 12.7 mph - 0.01 in Rain Light Rain
12:53 PM 39.2 °F 31.2 °F 39.2 °F 100% 30.09 in 4.0 mi South 13.8 mph - N/A Rain Light Rain
1:53 PM 41.0 °F 33.9 °F 39.9 °F 96% 30.10 in 4.0 mi South 12.7 mph - 0.00 in   Overcast
2:53 PM 41.0 °F 34.3 °F 41.0 °F 100% 30.08 in 2.5 mi South 11.5 mph - 0.01 in Rain Rain
3:07 PM 41.0 °F 33.9 °F 39.2 °F 93% 30.05 in 3.0 mi South 12.7 mph - 0.00 in   Overcast
3:20 PM 41.0 °F 33.5 °F 39.2 °F 93% 30.04 in 2.5 mi SSE 13.8 mph - 0.00 in   Overcast
3:33 PM 41.0 °F 33.5 °F 39.2 °F 93% 30.04 in 3.0 mi South 13.8 mph - 0.00 in   Overcast
3:53 PM 41.0 °F 34.3 °F 39.9 °F 96% 30.06 in 3.0 mi SSE 11.5 mph - 0.01 in Rain Light Rain
4:39 PM 41.0 °F 34.7 °F 39.2 °F 93% 30.03 in 2.5 mi South 10.4 mph - 0.00 in   Overcast
4:53 PM 41.0 °F 34.7 °F 39.9 °F 96% 30.07 in 3.0 mi South 10.4 mph - 0.00 in   Overcast
5:53 PM 41.0 °F 34.7 °F 39.9 °F 96% 30.06 in 3.0 mi SSE 10.4 mph - N/A   Overcast
6:06 PM 41.0 °F 34.7 °F 39.2 °F 93% 30.03 in 2.5 mi South 10.4 mph - N/A   Overcast
6:24 PM 41.0 °F 35.2 °F 39.2 °F 93% 30.02 in 1.8 mi South 9.2 mph - N/A   Overcast
6:41 PM 41.0 °F 35.2 °F 39.2 °F 93% 30.00 in 2.5 mi SSE 9.2 mph - N/A   Overcast
6:53 PM 41.0 °F 35.2 °F 39.9 °F 96% 30.04 in 3.0 mi SSE 9.2 mph - N/A   Overcast
7:53 PM 41.0 °F 34.3 °F 39.9 °F 96% 30.03 in 3.0 mi South 11.5 mph - N/A   Overcast
8:15 PM 41.0 °F 33.9 °F 39.2 °F 93% 29.98 in 2.5 mi SSE 12.7 mph - N/A   Overcast
8:23 PM 41.0 °F 33.1 °F 39.2 °F 93% 29.98 in 3.0 mi SSE 15.0 mph - N/A   Overcast
8:53 PM 41.0 °F 34.7 °F 41.0 °F 100% 30.00 in 2.5 mi SSE 10.4 mph - N/A   Overcast
9:11 PM 41.0 °F 34.7 °F 41.0 °F 100% 29.97 in 1.5 mi SSE 10.4 mph - N/A   Overcast
9:26 PM 41.0 °F 34.3 °F 41.0 °F 100% 29.98 in 0.8 mi South 11.5 mph - N/A   Overcast
9:43 PM 41.0 °F 33.5 °F 41.0 °F 100% 29.98 in 1.2 mi South 13.8 mph - N/A   Overcast
9:53 PM 41.0 °F 34.3 °F 41.0 °F 100% 30.01 in 2.5 mi South 11.5 mph - N/A   Overcast
10:10 PM 41.0 °F 33.9 °F 41.0 °F 100% 29.97 in 3.0 mi South 12.7 mph - 0.00 in Rain Light Rain
10:17 PM 41.0 °F 33.9 °F 41.0 °F 100% 29.97 in 3.0 mi South 12.7 mph - 0.00 in Rain Light Rain
10:35 PM 41.0 °F 34.7 °F 41.0 °F 100% 29.96 in 4.0 mi South 10.4 mph - 0.00 in   Overcast
10:53 PM 41.0 °F 34.7 °F 41.0 °F 100% 30.00 in 4.0 mi South 10.4 mph - 0.00 in   Overcast
11:39 PM 42.8 °F 37.5 °F 41.0 °F 93% 29.94 in 4.0 mi South 9.2 mph - 0.00 in   Overcast
11:53 PM 42.1 °F 35.7 °F 41.0 °F 96% 29.96 in 4.0 mi South 11.5 mph - 0.00 in   Overcast